Location: Le Bech
(45.0664°N, 1.8902°E)
Time: 12:47:35
(UTC+00:00)

Daily predictions for brighter satellites

Satellite Brightness Start Highest point End
(mag) Time Altitude Azimuth Time Altitude Azimuth Time Altitude Azimuth
STARLINK-1206 3.2 18:42:06 10° WSW 18:45:13 70° NNW 18:48:19 10° NE
STARLINK-1247 3.2 18:42:33 10° WSW 18:45:38 69° NNW 18:48:45 10° NE
FREGAT/IRIS 3.8 18:43:37 10° ESE 18:45:44 20° ENE 18:47:51 10° NNE
STARLINK-1243 3.6 18:41:54 10° SW 18:45:57 69° SE 18:50:01 10° ENE
STARLINK-1227 3.2 18:42:58 10° WSW 18:46:05 69° NNW 18:49:13 10° NE
STARLINK-1218 3.2 18:43:27 10° WSW 18:46:32 68° NNW 18:49:40 10° NE
Abrixas rocket 3.9 18:45:05 10° S 18:46:52 15° SE 18:48:39 10° ESE
STARLINK-1226 3.2 18:43:54 10° WSW 18:46:59 67° NNW 18:50:07 10° NE
STARLINK-1254 3.2 18:44:19 10° WSW 18:47:26 67° NNW 18:50:34 10° NE
STARLINK-1079 3.7 18:43:49 10° NW 18:47:51 62° NNE 18:51:50 10° ESE
STARLINK-1215 3.2 18:44:48 10° WSW 18:47:54 66° NNW 18:51:01 10° NE
STARLINK-1231 3.2 18:45:14 10° WSW 18:48:20 66° NNW 18:51:27 10° NE
STARLINK-1232 3.3 18:46:09 10° WSW 18:49:15 65° NNW 18:52:21 10° NE
STARLINK-1217 3.3 18:46:36 10° WSW 18:49:42 64° NNW 18:52:49 10° NE
Cosmos 1953 4.3 18:49:15 10° E 18:50:01 10° E 18:50:47 10° ENE
STARLINK-1208 3.3 18:47:02 10° WSW 18:50:08 64° NNW 18:53:15 10° NE
Cosmos 304 Rocket 3.8 18:45:37 10° NNW 18:50:23 65° ENE 18:55:08 10° SSE
STARLINK-1229 3.3 18:47:31 10° WSW 18:50:35 63° NNW 18:53:42 10° NE
STARLINK-1236 3.5 18:46:40 10° SW 18:50:43 74° SE 18:54:48 10° ENE
STARLINK-1271 3.3 18:47:58 10° WSW 18:51:02 62° NNW 18:54:09 10° NE
Cosmos 1709 Rocket 4.4 18:45:11 10° N 18:51:05 43° ENE 18:56:53 10° SE
STARLINK-1270 3.3 18:48:25 10° WSW 18:51:31 62° NNW 18:54:37 10° NE
STARLINK-1154 3.4 18:48:53 10° WSW 18:51:58 61° NNW 18:55:04 10° NE
SeaSat 1 3.6 18:47:17 10° NNE 18:52:03 49° NW 18:56:47 10° SW
STARLINK-1116 3.7 18:48:14 10° NW 18:52:16 66° NNE 18:56:18 10° ESE
STARLINK-1197 3.4 18:49:47 10° WSW 18:52:52 60° NNW 18:55:57 10° NE
Cosmos 1269 Rocket 4.2 18:48:09 10° S 18:53:14 50° ESE 18:58:21 10° NNE
STARLINK-1189 3.4 18:50:14 10° WSW 18:53:19 60° NNW 18:56:25 10° NE
STARLINK-1187 3.6 18:51:07 10° WSW 18:54:11 53° NNW 18:57:17 10° NE
STARLINK-1188 3.4 18:51:09 10° WSW 18:54:13 59° NNW 18:57:19 10° NE
STARLINK-1198 3.4 18:51:09 10° WSW 18:54:14 59° NNW 18:57:19 10° NE
STARLINK-1235 3.8 18:51:51 10° WSW 18:54:54 47° NNW 18:57:59 10° NE
SL-08 ROCKET BODY 4.4 18:49:51 10° N 18:56:00 75° E 19:02:01 10° SSE
STARLINK-1199 3.5 18:53:06 10° WSW 18:56:11 57° NNW 18:59:17 10° NE
STARLINK-1191 3.5 18:53:32 10° WSW 18:56:37 56° NNW 18:59:44 10° NE
STARLINK-1210 3.5 18:54:00 10° WSW 18:57:05 56° NNW 19:00:11 10° NE
STARLINK-1221 3.5 18:54:27 10° WSW 18:57:32 56° NNW 19:00:39 10° NE
STARLINK-1219 3.5 18:54:55 10° WSW 18:57:59 55° NNW 19:01:05 10° NE
STARLINK-1118 4.0 18:56:30 10° W 18:58:21 24° SW 19:00:12 10° SSE
STARLINK-1222 3.6 18:55:22 10° WSW 18:58:26 55° NNW 19:01:33 10° NE
STARLINK-1211 3.6 18:55:49 10° WSW 18:58:53 54° NNW 19:01:59 10° NE
YAOGAN 1 4.0 18:54:52 10° S 18:58:58 42° W 19:03:06 10° NNW
STARLINK-1214 3.6 18:56:16 10° WSW 18:59:20 54° NNW 19:02:26 10° NE
ISS -2.1 18:56:26 10° NW 18:59:21 27° N 19:02:18 10° ENE
STARLINK-1245 3.6 18:56:45 10° WSW 18:59:48 53° NNW 19:02:52 10° NE
STARLINK-1238 3.6 18:57:08 10° WSW 19:00:12 53° NNW 19:03:18 10° NE
STARLINK-1269 3.6 18:56:28 10° SW 19:00:32 86° SSE 19:04:38 10° ENE
STARLINK-1205 3.6 18:58:04 10° WSW 19:01:07 52° NNW 19:04:11 10° NE
Cosmos 1455 Rocket 3.0 18:56:55 10° S 19:01:12 65° E 19:05:31 10° NNE
STARLINK-1094 3.6 18:57:29 10° NW 19:01:33 76° NNE 19:05:21 12° ESE
STARLINK-1204 3.6 18:58:33 10° WSW 19:01:36 52° NNW 19:04:40 10° NE
Cosmos 371 Rocket 4.5 18:57:15 10° NNW 19:01:52 46° WSW 19:06:29 10° S
Cosmos 2297 3.9 18:56:24 10° NNW 19:02:00 58° ENE 19:07:37 10° SE
S3M 4.1 18:58:41 10° S 19:05:04 88° W 19:11:31 10° N
STARLINK-1200 3.6 19:01:16 10° WSW 19:05:21 88° NW 19:09:27 10° ENE
Cosmos 2237 Rocket 2.9 19:00:09 10° SW 19:05:41 61° WNW 19:11:18 10° NNE
STARLINK-1117 3.5 19:02:20 10° WNW 19:06:24 81° NNE 19:10:00 13° ESE
Cosmos 1386 Rocket 4.5 19:00:59 10° N 19:07:05 89° W 19:13:05 10° S
Cosmos 1892 Rocket 3.9 19:04:43 10° NNW 19:09:12 74° W 19:13:40 10° S
Cosmos 1805 3.9 19:05:34 10° SSW 19:09:26 59° W 19:13:18 10° N
CZ-2C R/B 3.8 19:06:04 10° NE 19:09:45 19° E 19:13:24 10° SE
Cosmos 1626 Rocket 4.1 19:05:49 10° N 19:09:57 39° ENE 19:14:02 10° SE
STARLINK-1192 3.6 19:06:02 10° WSW 19:10:06 82° NNW 19:14:13 10° ENE
STARLINK-1078 3.5 19:06:47 10° WNW 19:10:51 86° NE 19:14:17 14° ESE
BREEZE-M DEB (TANK) 4.0 19:00:04 10° WNW 19:12:23 55° SW 19:15:43 10° SE
Cosmos 2278 Rocket 3.8 19:07:43 10° NW 19:12:53 37° WSW 19:18:02 10° S
Meteor 2-5 Rocket 4.2 19:07:57 10° NNW 19:13:35 66° W 19:19:04 10° S
STARLINK-1244 3.7 19:10:57 10° WSW 19:15:02 77° NNW 19:19:08 10° NE
ARGOS 3.2 19:10:07 10° SSE 19:15:26 62° ENE 19:20:45 10° N
STARLINK-1108 3.5 19:11:38 10° WNW 19:15:43 88° SSW 19:18:58 15° SE
Cosmos 1602 Rocket 4.2 19:13:47 10° N 19:17:58 37° ENE 19:21:45 12° SE
STARLINK-1138 3.8 19:15:34 10° WSW 19:19:38 72° NNW 19:23:44 10° NE
STARLINK-1071 3.6 19:16:18 10° WNW 19:20:22 82° SW 19:23:26 17° SE
STARLINK-1234 4.5 19:18:04 10° W 19:20:46 30° NNW 19:23:27 10° NE
Okean 1-7 Rocket 4.0 19:16:52 10° NNW 19:21:13 64° W 19:25:32 10° S
Cosmos 494 Rocket 4.4 19:16:30 10° SSW 19:21:37 68° WNW 19:26:48 10° NNE
USA 186 1.8 19:19:15 10° SSE 19:22:41 77° ENE 19:26:04 10° N
STARLINK-1112 4.5 19:19:28 10° NW 19:23:24 39° NNE 19:26:14 17° E
MOS 1 Rocket 4.5 19:19:46 10° NE 19:24:14 28° E 19:28:48 10° SSE
STARLINK-1143 3.9 19:20:28 10° WSW 19:24:32 68° NNW 19:28:38 10° NE
STARLINK-1110 3.6 19:20:46 10° WNW 19:24:49 76° SW 19:27:43 18° SE
Meteor 1-24 Rocket 3.9 19:19:21 10° NNW 19:24:51 71° W 19:30:09 10° S
STARLINK-1124 3.7 19:22:08 10° WNW 19:26:17 75° SW 19:29:13 19° SE
CZ-2C R/B 2.9 19:22:46 10° SSE 19:27:50 82° ENE 19:32:42 10° NNW
STARLINK-1128 4.4 19:24:28 10° NW 19:28:24 41° NNE 19:31:01 19° E
Cosmos 1544 Rocket 3.6 19:24:23 10° S 19:28:46 86° W 19:33:14 10° N
Cosmos 1470 2.7 19:27:00 10° S 19:30:48 61° E 19:34:40 10° NNE
STARLINK-1241 4.1 19:28:53 10° WSW 19:32:53 60° NNW 19:36:54 10° NE
STARLINK-1113 4.3 19:29:26 10° NW 19:33:25 43° NNE 19:35:47 21° E
STARLINK-1122 3.8 19:30:13 10° WNW 19:34:15 65° SW 19:36:48 21° SE
SPOT 3 Rocket 3.7 19:29:48 12° SSE 19:34:36 56° ENE 19:39:42 10° N
MOS 1 4.3 19:30:50 10° SSE 19:36:29 85° WSW 19:42:12 10° NNW
STARLINK-1239 4.2 19:33:50 10° WSW 19:37:49 56° NNW 19:41:49 10° NE
STARLINK-1119 4.3 19:34:24 10° NW 19:38:23 45° NNE 19:40:34 24° E
STARLINK-1126 3.9 19:35:12 10° WNW 19:39:13 60° SW 19:41:36 23° SE
Cosmos 2369 Rocket 2.8 19:34:58 10° NNW 19:40:19 39° NE 19:43:14 23° ESE
SJ-6B 2.9 19:36:42 10° SSE 19:40:45 88° WSW 19:44:54 10° NNW
H-2A R/B 4.3 19:34:10 10° WSW 19:41:28 16° SW 19:44:51 10° S
STARLINK-1240 4.3 19:38:35 10° WSW 19:42:34 53° NNW 19:46:29 10° NE
Cosmos 1726 3.2 19:42:56 26° E 19:42:56 26° E 19:45:49 10° NNE
STARLINK-1114 4.2 19:39:25 10° NW 19:43:27 48° NNE 19:45:24 26° E
STARLINK-1082 4.0 19:39:42 10° WNW 19:43:42 55° SW 19:45:55 24° SSE
Ariane Rocket 3.8 19:38:52 10° S 19:43:49 53° W 19:48:47 10° NNW
Cosmos 1758 3.2 19:40:41 10° S 19:44:46 82° E 19:48:54 10° N
Aureole 2 Rocket 3.4 19:42:25 10° N 19:45:34 30° ENE 19:45:56 29° ENE
Cosmos 1758 Rocket 4.2 19:42:48 10° N 19:46:48 34° ENE 19:47:53 30° ESE
STARLINK-1216 4.4 19:43:22 10° WSW 19:47:19 50° NNW 19:51:03 11° NE
NOSS 3-3 (A) 4.3 19:42:14 10° S 19:47:27 36° ESE 19:53:12 10° NE
NOSS 3-3 (C) 4.3 19:42:21 10° S 19:47:34 36° ESE 19:53:18 10° NE
STARLINK-1130 (DARKSAT) 4.1 19:44:22 10° NW 19:48:26 51° NNE 19:50:10 30° E
STARLINK-1100 4.1 19:44:38 10° WNW 19:48:36 51° SW 19:50:39 25° SSE
CZ-2C R/B 3.7 19:45:18 10° NNE 19:50:04 72° ESE 19:54:44 10° S
STARLINK-1237 4.5 19:48:11 10° W 19:52:07 47° NNW 19:55:38 12° NE
STARLINK-1083 4.3 19:49:25 10° WNW 19:53:20 47° SW 19:55:12 27° SSE
STARLINK-1084 4.0 19:49:19 10° NW 19:53:24 54° NNE 19:54:56 33° E
Cosmos 2184 Rocket 4.2 19:49:50 10° N 19:56:02 52° ENE 19:59:37 25° SE
IRIDIUM 106 4.3 19:51:02 10° N 19:56:15 68° E 20:00:12 17° SSE
Spot 2 Rocket 4.4 19:55:41 27° E 19:56:51 29° ENE 20:01:14 10° N
STARLINK-1125 4.4 19:53:58 10° WNW 19:57:51 44° SW 19:59:33 27° SSE
STARLINK-1098 3.9 19:54:19 10° NW 19:58:24 57° NNE 19:59:43 38° E
Cosmos 1606 Rocket 4.3 19:59:07 31° E 19:59:07 31° E 20:02:47 10° NNE
Cosmos 1943 Rocket 2.1 19:56:19 10° NNW 20:01:53 71° ENE 20:04:34 31° SE
Meteor 1-21 Rocket 4.1 19:56:57 10° N 20:02:33 76° ENE 20:06:08 23° SSE
Cosmos 1943 3.7 20:01:04 28° SE 20:02:49 35° ESE 20:07:56 10° NE
STARLINK-1123 3.8 19:59:17 10° NW 20:03:24 61° NNE 20:04:30 43° E
Meteor 2-10 4.1 20:00:44 14° S 20:05:09 56° E 20:10:33 10° NNE
SL-8 R/B 3.9 20:00:54 10° WNW 20:05:38 62° N 20:07:35 34° ENE
Resurs 1-3 3.5 20:05:32 29° SSE 20:07:45 88° ENE 20:12:10 10° NNW
STARLINK-1097 3.7 20:04:15 10° NW 20:08:23 65° NNE 20:09:16 49° E
Cosmos 1626 4.2 20:06:10 10° NNW 20:09:21 27° W 20:12:30 10° SSW
ATLAS 2AS CENTAUR R/B 3.8 20:03:54 10° NNW 20:10:56 36° NE 20:14:22 24° E
STARLINK-1099 3.6 20:09:14 10° NW 20:13:22 69° NNE 20:14:04 56° E
H-2A R/B 3.6 20:09:40 10° SSW 20:14:30 35° W 20:19:16 10° NNW
Aureole 3 3.8 20:12:43 10° SSW 20:16:40 70° W 20:21:46 10° N
USA 234 3.2 20:10:13 10° NE 20:16:47 87° NNW 20:23:21 10° SW
Cosmos 2154 Rocket 4.3 20:10:57 10° N 20:17:07 49° ENE 20:19:00 38° ESE
Resurs 01 Rocket 1.5 20:16:28 48° SSE 20:17:39 79° ENE 20:22:05 10° N
STARLINK-1104 3.5 20:14:12 10° NW 20:18:21 74° NNE 20:18:51 64° E
DMSP B5D2-2 4.0 20:14:22 10° NNE 20:19:36 88° WNW 20:24:50 10° SSW
SL-16 R/B 3.4 20:14:56 10° SW 20:20:18 43° WNW 20:25:42 10° NNE
Cosmos 1328 4.5 20:17:15 10° N 20:20:25 40° NE 20:20:25 40° NE
Cosmos 2228 3.4 20:22:39 45° ENE 20:22:39 45° ENE 20:26:05 10° NNE
Abrixas rocket 3.6 20:19:09 10° WSW 20:20:46 29° WSW 20:20:46 29° WSW
Cosmos 967 Rocket 4.5 20:16:21 10° SSW 20:22:37 58° ESE 20:28:58 10° NE
STARLINK-1144 3.4 20:19:11 10° NW 20:23:21 80° NNE 20:23:38 74° E
Cosmos 1953 2.7 20:23:07 19° SSW 20:25:50 62° W 20:29:47 10° N
STARLINK-1103 3.4 20:24:09 10° WNW 20:28:19 85° NE 20:28:25 84° ENE
Cosmos 1992 Rocket 4.0 20:26:24 10° NNW 20:31:38 81° WSW 20:33:07 48° S
Nadezhda 1 Rocket 4.0 20:29:47 34° SSE 20:32:41 66° E 20:39:01 10° NNE
STARLINK-1101 3.5 20:29:08 10° WNW 20:33:11 85° WNW 20:33:11 85° WNW
ISS -2.6 20:33:13 10° WNW 20:35:39 43° NW 20:35:39 43° NW
STARLINK-1102 3.7 20:34:06 10° WNW 20:37:58 75° W 20:37:58 75° W
MetOp-B 4.0 20:40:10 61° SE 20:41:06 80° ENE 20:46:29 10° NNW
Cosmos 1603 3.6 20:36:17 10° SSW 20:41:56 88° ESE 20:47:34 10° NNE
Cosmos 2251 Rocket 3.8 20:37:33 10° SSW 20:42:52 67° WNW 20:48:15 10° NNE
SPOT 5 4.3 20:44:26 23° NE 20:44:26 23° NE 20:46:44 10° N
STARLINK-1111 3.9 20:39:06 10° WNW 20:42:45 66° W 20:42:45 66° W
Meteor 1-16 Rocket 4.1 20:40:19 27° SSW 20:43:18 81° W 20:48:47 10° N
Cosmos 2084 Rocket 3.8 20:38:58 10° NW 20:43:23 61° SW 20:43:30 60° SW
Cosmos 1703 3.9 20:40:45 10° N 20:43:49 52° N 20:43:49 52° N
ERS-1 Rocket 3.7 20:48:38 38° NE 20:48:38 38° NE 20:52:36 10° N
STARLINK-1073 4.1 20:44:05 10° WNW 20:47:33 57° W 20:47:33 57° W
Landsat 7 4.1 20:49:39 54° NE 20:49:39 54° NE 20:53:44 10° N
Cosmos 2074 Rocket 4.4 20:43:23 10° NNW 20:49:34 62° W 20:53:01 27° SSW
CZ-2C R/B 3.1 20:45:21 10° N 20:50:25 57° WNW 20:55:28 10° SSW
STARLINK-1121 4.3 20:49:04 10° WNW 20:52:19 50° W 20:52:19 50° W
Cosmos 1656 Rocket 3.6 20:56:22 10° NNW 21:02:03 78° ENE 21:02:03 78° ENE
Aureole 1 Rocket 4.3 21:01:50 53° SSE 21:03:33 67° ESE 21:10:13 10° NNE
Meteor 1-11 4.1 20:58:18 10° NNW 21:04:08 87° W 21:04:29 80° S
Cosmos 1726 Rocket 4.4 21:10:43 48° NW 21:10:43 48° NW 21:14:18 10° N
COSMOS 2455 3.7 21:09:46 10° NNW 21:15:09 37° NE 21:15:09 37° NE
Cosmos 1726 4.5 21:17:22 21° W 21:17:50 21° WNW 21:20:47 10° NNW
Cosmos 2341 Rocket 3.9 21:16:26 10° N 21:22:43 85° NE 21:22:43 85° NE
Cosmos 2369 Rocket 3.3 21:19:09 10° NW 21:24:16 35° WSW 21:25:03 33° WSW
NOSS 3-4 (A) 3.7 21:22:50 10° NW 21:29:50 75° NE 21:30:09 73° ENE
NOSS 3-4 (C) 3.7 21:22:56 10° NW 21:29:56 74° NE 21:30:14 73° ENE
Terra 3.3 21:32:45 32° N 21:32:45 32° N 21:35:23 10° N
SPOT 1/Viking Rocket 4.4 21:41:28 47° WNW 21:41:28 47° WNW 21:45:38 10° NNW
Cosmos 1943 Rocket 4.3 21:41:26 10° WNW 21:44:59 18° W 21:46:08 16° WSW
Cosmos 1943 4.4 21:42:18 14° WSW 21:46:48 39° NW 21:52:08 10° NNE
Cosmos 2218 Rocket 4.3 21:43:41 10° N 21:48:36 59° N 21:48:36 59° N
Resurs 01 Rocket 4.5 21:54:01 10° W 21:54:43 11° W 21:55:44 10° WNW
Cosmos 2181 Rocket 4.4 22:00:16 58° NNW 22:00:16 58° NNW 22:05:20 10° N
USA 234 4.4 21:53:24 10° NE 21:59:23 40° NNW 22:05:22 10° W
ATLAS 2AS CENTAUR R/B 3.0 21:55:01 10° NW 22:01:48 66° W 22:01:48 66° W
Cosmos 1980 Rocket 4.4 22:32:51 10° N 22:35:28 18° NNE 22:35:28 18° NNE
CZ-4C R/B 4.3 22:31:36 10° NNW 22:37:16 27° NNE 22:38:44 25° NE
